View from above orbital plane
|
View from above satellite
|
Ground track
|
The orbit data is extracted from the following two-line orbital elements,
1 37391U 11014B 21097.84308091 0.00000000 00000-0 00000-0 0 05
2 37391 63.4420 76.4983 0194988 357.9857 2.0143 13.40819720 09
Epoch (UTC): | 07 April 2021 20:14:02 |
Eccentricity: | 0.0194988 |
inclination: | 63.4420° |
perigee height: | 960 km |
apogee height: | 1252 km |
right ascension of ascending node: | 76.4983° |
argument of perigee: | 357.9857° |
revolutions per day: | 13.40819720 |
mean anomaly at epoch: | 2.0143° |
orbit number at epoch: | 0 |
The dashed part of the orbit path shows where the satellite is in the earth's shadow,
|
|